�������l�o���
Date,Time,MP-1(��Sv/h),MP-2(��Sv/h),MP-3(��Sv/h),MP-4(��Sv/h),MP-5(��Sv/h),MP-6(��Sv/h),MP-7(��Sv/h),����,����(m/s),���J
2023/09/07,00:00,0.142,0.127,0.210,0.199,0.205,0.115,0.074,�k�k��,3.8,��
2023/09/07,00:10,0.141,0.127,0.210,0.198,0.207,0.113,0.075,�k��,3.8,��
2023/09/07,00:20,0.142,0.128,0.212,0.201,0.205,0.115,0.074,�k�k��,3.8,��
2023/09/07,00:30,0.142,0.127,0.209,0.198,0.203,0.114,0.074,�k��,3.4,��
2023/09/07,00:40,0.142,0.127,0.211,0.199,0.207,0.115,0.074,�k��,3.5,��
2023/09/07,00:50,0.144,0.128,0.210,0.200,0.205,0.114,0.073,�k��,3.3,��
2023/09/07,01:00,0.142,0.127,0.209,0.197,0.204,0.115,0.074,�k�k��,2.9,��
2023/09/07,01:10,0.141,0.127,0.211,0.199,0.206,0.114,0.074,�k��,2.8,��
2023/09/07,01:20,0.143,0.128,0.211,0.199,0.205,0.115,0.074,�k�k��,3.2,��
2023/09/07,01:30,0.143,0.127,0.211,0.198,0.204,0.115,0.074,�k�k��,2.8,��
2023/09/07,01:40,0.142,0.127,0.211,0.201,0.207,0.115,0.074,�k�k��,2.6,��
2023/09/07,01:50,0.144,0.128,0.211,0.199,0.204,0.116,0.074,�k�k��,1.7,��
2023/09/07,02:00,0.142,0.127,0.212,0.199,0.205,0.116,0.074,�k,2.3,��
2023/09/07,02:10,0.143,0.128,0.212,0.200,0.206,0.115,0.075,�k�k��,2.4,��
2023/09/07,02:20,0.144,0.128,0.210,0.198,0.204,0.115,0.075,�k�k��,2.0,��
2023/09/07,02:30,0.142,0.128,0.211,0.200,0.207,0.115,0.075,�k�k��,2.1,��
2023/09/07,02:40,0.143,0.128,0.211,0.200,0.206,0.115,0.074,�k,2.5,��
2023/09/07,02:50,0.144,0.127,0.212,0.199,0.205,0.116,0.075,�k,1.9,��
2023/09/07,03:00,0.143,0.128,0.213,0.201,0.207,0.115,0.075,�k,3.5,��
2023/09/07,03:10,0.143,0.128,0.209,0.198,0.206,0.115,0.074,�k�k��,4.4,��
2023/09/07,03:20,0.144,0.128,0.213,0.200,0.205,0.116,0.074,�k�k��,3.7,��
2023/09/07,03:30,0.143,0.128,0.211,0.201,0.207,0.115,0.074,�k��,3.7,��
2023/09/07,03:40,0.144,0.128,0.211,0.199,0.205,0.116,0.075,�k�k��,3.3,��
2023/09/07,03:50,0.142,0.128,0.212,0.200,0.206,0.116,0.075,�k��,2.5,��
2023/09/07,04:00,0.144,0.127,0.210,0.199,0.206,0.115,0.074,�k�k��,5.1,��
2023/09/07,04:10,0.143,0.128,0.212,0.200,0.205,0.115,0.075,�k�k��,6.0,��
2023/09/07,04:20,0.143,0.127,0.210,0.201,0.207,0.116,0.075,�k��,4.8,��
2023/09/07,04:30,0.144,0.128,0.212,0.199,0.205,0.114,0.074,�k��,4.8,��
2023/09/07,04:40,0.142,0.128,0.210,0.200,0.206,0.116,0.074,�k��,6.0,��
2023/09/07,04:50,0.143,0.127,0.211,0.198,0.205,0.116,0.074,�k��,6.8,��
2023/09/07,05:00,0.143,0.127,0.211,0.200,0.204,0.115,0.075,�k��,6.8,��
2023/09/07,05:10,0.142,0.127,0.211,0.200,0.208,0.116,0.074,�k��,5.7,��
2023/09/07,05:20,0.144,0.127,0.212,0.199,0.205,0.115,0.074,�k��,6.2,��
2023/09/07,05:30,0.143,0.127,0.210,0.201,0.205,0.115,0.073,�k��,6.6,��
2023/09/07,05:40,0.143,0.128,0.212,0.198,0.207,0.116,0.074,�k��,6.4,��
2023/09/07,05:50,0.143,0.128,0.211,0.200,0.204,0.115,0.074,�k��,6.3,��
2023/09/07,06:00,0.142,0.127,0.212,0.199,0.207,0.116,0.073,�k��,5.6,��
2023/09/07,06:10,0.143,0.127,0.211,0.198,0.207,0.115,0.074,�k��,5.5,��
2023/09/07,06:20,0.142,0.127,0.210,0.200,0.203,0.115,0.074,�k��,6.4,��
2023/09/07,06:30,0.143,0.127,0.212,0.198,0.207,0.116,0.074,�k��,5.8,��
2023/09/07,06:40,0.144,0.127,0.210,0.199,0.206,0.115,0.073,�k��,4.3,��
2023/09/07,06:50,0.143,0.127,0.213,0.200,0.205,0.115,0.073,�k��,4.2,��
2023/09/07,07:00,0.143,0.128,0.211,0.198,0.207,0.116,0.073,�k��,4.6,��
2023/09/07,07:10,0.144,0.127,0.210,0.199,0.206,0.115,0.074,�k�k��,5.1,��
2023/09/07,07:20,0.142,0.127,0.213,0.199,0.204,0.116,0.074,�k��,4.7,��
2023/09/07,07:30,0.143,0.128,0.212,0.197,0.206,0.116,0.073,�k�k��,5.0,��
2023/09/07,07:40,0.145,0.127,0.210,0.196,0.206,0.115,0.074,�k�k��,5.5,��
2023/09/07,07:50,0.142,0.128,0.209,0.200,0.207,0.115,0.074,�k�k��,5.7,��
2023/09/07,08:00,0.143,0.129,0.210,0.200,0.204,0.116,0.074,�k�k��,3.8,��
2023/09/07,08:10,0.144,0.127,0.210,0.199,0.205,0.115,0.074,�k�k��,4.7,��
2023/09/07,08:20,0.144,0.127,0.209,0.198,0.207,0.115,0.074,�k,4.2,��
2023/09/07,08:30,0.144,0.126,0.210,0.198,0.207,0.116,0.074,�k,3.4,��
2023/09/07,08:40,0.143,0.127,0.210,0.198,0.206,0.116,0.074,�k,3.4,��
2023/09/07,08:50,0.143,0.128,0.212,0.199,0.204,0.114,0.074,�k��,3.2,��
2023/09/07,09:00,0.143,0.130,0.212,0.198,0.205,0.115,0.074,�k��,2.5,��
2023/09/07,09:10,0.143,0.128,0.211,0.200,0.205,0.115,0.074,�k�k��,4.1,��
2023/09/07,09:20,0.143,0.130,0.213,0.200,0.205,0.116,0.075,�k�k��,4.1,��
2023/09/07,09:30,0.144,0.128,0.212,0.200,0.205,0.116,0.075,�k��,4.2,��
2023/09/07,09:40,0.143,0.128,0.211,0.200,0.206,0.115,0.074,�k��,3.9,��
2023/09/07,09:50,0.144,0.128,0.212,0.200,0.205,0.116,0.074,�k��,3.9,��
2023/09/07,10:00,0.143,0.128,0.212,0.200,0.206,0.115,0.074,�k��,3.8,��
2023/09/07,10:10,0.142,0.128,0.211,0.201,0.206,0.115,0.074,�k��,4.0,��
2023/09/07,10:20,0.144,0.128,0.212,0.200,0.207,0.116,0.075,�k��,4.8,��
2023/09/07,10:30,0.142,0.128,0.212,0.201,0.206,0.115,0.075,�k�k��,3.8,��
2023/09/07,10:40,0.143,0.128,0.212,0.200,0.207,0.116,0.075,�k�k��,4.0,��
2023/09/07,10:50,0.144,0.129,0.212,0.200,0.208,0.116,0.074,�k��,4.1,��
2023/09/07,11:00,0.145,0.128,0.212,0.200,0.207,0.117,0.075,�k�k��,3.2,��
2023/09/07,11:10,0.145,0.128,0.212,0.200,0.207,0.116,0.075,�k��,4.1,��
2023/09/07,11:20,0.144,0.128,0.213,0.200,0.207,0.117,0.075,�k��,3.4,��
2023/09/07,11:30,0.144,0.129,0.213,0.201,0.208,0.118,0.075,�k��,4.0,��
2023/09/07,11:40,0.144,0.129,0.213,0.201,0.207,0.116,0.074,�k��,4.0,��
2023/09/07,11:50,0.144,0.130,0.214,0.201,0.206,0.117,0.075,�k��,3.7,��
2023/09/07,12:00,0.144,0.128,0.213,0.201,0.208,0.116,0.075,�k��,4.0,��
2023/09/07,12:10,0.145,0.129,0.214,0.201,0.207,0.116,0.075,�k�k��,3.6,��
2023/09/07,12:20,0.145,0.129,0.213,0.201,0.207,0.116,0.075,�k��,3.2,��
2023/09/07,12:30,0.144,0.129,0.213,0.202,0.208,0.116,0.075,�k��,3.9,��
2023/09/07,12:40,0.144,0.129,0.213,0.201,0.207,0.116,0.075,�k��,3.0,��
2023/09/07,12:50,0.144,0.129,0.213,0.202,0.207,0.116,0.075,�k��,4.3,��
2023/09/07,13:00,0.145,0.129,0.213,0.202,0.208,0.117,0.076,�k��,3.3,��
2023/09/07,13:10,0.144,0.130,0.213,0.202,0.209,0.117,0.074,�k��,2.6,��
2023/09/07,13:20,0.145,0.130,0.215,0.201,0.209,0.116,0.075,�k��,2.9,��
2023/09/07,13:30,0.145,0.128,0.214,0.202,0.207,0.117,0.075,�k�k��,3.0,��
2023/09/07,13:40,0.144,0.129,0.214,0.201,0.208,0.117,0.075,�k��,3.1,��
2023/09/07,13:50,0.145,0.130,0.214,0.202,0.208,0.117,0.076,�k�k��,2.0,��
2023/09/07,14:00,0.145,0.129,0.214,0.201,0.207,0.117,0.075,�k��,2.4,��
2023/09/07,14:10,0.145,0.129,0.214,0.201,0.208,0.118,0.075,�k�k��,2.6,��
2023/09/07,14:20,0.145,0.130,0.213,0.201,0.208,0.118,0.075,�k�k��,1.8,��
2023/09/07,14:30,0.145,0.130,0.214,0.201,0.208,0.117,0.075,���k��,2.0,��
2023/09/07,14:40,0.144,0.129,0.212,0.202,0.208,0.116,0.075,�k��,2.3,��
2023/09/07,14:50,0.145,0.129,0.213,0.202,0.206,0.116,0.075,�k��,2.4,��
2023/09/07,15:00,0.145,0.129,0.213,0.202,0.207,0.116,0.075,���k��,2.2,��
2023/09/07,15:10,0.144,0.130,0.212,0.201,0.208,0.116,0.075,���k��,2.6,��
2023/09/07,15:20,0.145,0.129,0.212,0.201,0.207,0.116,0.075,���k��,2.2,��
2023/09/07,15:30,0.143,0.129,0.213,0.201,0.207,0.117,0.075,���k��,1.8,��
2023/09/07,15:40,0.144,0.128,0.213,0.200,0.207,0.117,0.074,��,1.9,��
2023/09/07,15:50,0.144,0.129,0.212,0.201,0.207,0.116,0.074,��,3.0,��
2023/09/07,16:00,0.144,0.128,0.212,0.200,0.207,0.117,0.075,�k��,1.3,��
2023/09/07,16:10,0.145,0.128,0.215,0.204,0.206,0.117,0.076,-,CALM,��
2023/09/07,16:20,0.144,0.129,0.216,0.204,0.205,0.117,0.075,���k��,0.6,��
2023/09/07,16:30,0.144,0.131,0.215,0.202,0.205,0.117,0.075,��,1.2,��
2023/09/07,16:40,0.146,0.130,0.215,0.202,0.206,0.117,0.075,��,2.3,��
2023/09/07,16:50,0.146,0.128,0.213,0.201,0.208,0.117,0.075,��,1.7,��
2023/09/07,17:00,0.144,0.129,0.213,0.202,0.209,0.117,0.076,��,2.2,��
2023/09/07,17:10,0.144,0.129,0.216,0.204,0.209,0.116,0.075,���k��,3.1,��
2023/09/07,17:20,0.144,0.129,0.215,0.203,0.208,0.117,0.074,���k��,1.2,��
2023/09/07,17:30,0.147,0.129,0.213,0.201,0.206,0.117,0.074,�k��,2.4,��
2023/09/07,17:40,0.146,0.129,0.214,0.201,0.210,0.117,0.076,�k��,1.2,��
2023/09/07,17:50,0.143,0.130,0.217,0.204,0.209,0.117,0.075,�k��,0.9,��
2023/09/07,18:00,0.145,0.130,0.214,0.202,0.207,0.118,0.075,�k��,1.4,��
2023/09/07,18:10,0.146,0.128,0.213,0.201,0.206,0.118,0.075,�k��,0.8,��
2023/09/07,18:20,0.145,0.129,0.215,0.202,0.208,0.116,0.075,���k��,1.3,��
2023/09/07,18:30,0.144,0.131,0.214,0.203,0.209,0.116,0.074,�k��,0.7,��
2023/09/07,18:40,0.145,0.129,0.213,0.201,0.207,0.118,0.074,�k��,1.7,��
2023/09/07,18:50,0.147,0.129,0.216,0.201,0.208,0.117,0.075,�k�k��,1.1,��
2023/09/07,19:00,0.145,0.130,0.215,0.204,0.210,0.115,0.076,�k��,2.2,��
2023/09/07,19:10,0.144,0.130,0.213,0.202,0.209,0.118,0.076,�k��,1.8,��
2023/09/07,19:20,0.145,0.128,0.214,0.202,0.207,0.118,0.075,�k��,1.2,��
2023/09/07,19:30,0.146,0.131,0.215,0.203,0.208,0.116,0.075,�k��,1.3,��
2023/09/07,19:40,0.145,0.129,0.215,0.202,0.211,0.117,0.076,���k��,1.2,��
2023/09/07,19:50,0.144,0.128,0.214,0.201,0.207,0.117,0.075,�k��,1.8,��
2023/09/07,20:00,0.146,0.130,0.216,0.203,0.207,0.117,0.075,�k��,1.7,��
2023/09/07,20:10,0.146,0.129,0.214,0.203,0.209,0.117,0.075,���k��,2.1,��
2023/09/07,20:20,0.145,0.129,0.214,0.201,0.210,0.117,0.076,�k��,1.4,��
2023/09/07,20:30,0.144,0.129,0.216,0.203,0.208,0.117,0.075,�k��,2.0,��
2023/09/07,20:40,0.146,0.130,0.215,0.204,0.206,0.116,0.075,�k��,0.7,��
2023/09/07,20:50,0.146,0.130,0.212,0.202,0.208,0.118,0.075,�k��,2.8,��
2023/09/07,21:00,0.145,0.129,0.215,0.202,0.209,0.117,0.076,�k��,2.8,�L
2023/09/07,21:10,0.144,0.130,0.216,0.204,0.206,0.117,0.074,�k��,3.4,�L
2023/09/07,21:20,0.146,0.131,0.213,0.203,0.207,0.117,0.075,�k��,2.6,�L
2023/09/07,21:30,0.147,0.130,0.216,0.202,0.210,0.117,0.075,�k��,2.8,��
2023/09/07,21:40,0.146,0.129,0.215,0.202,0.209,0.117,0.075,���k��,2.9,��
2023/09/07,21:50,0.144,0.129,0.213,0.203,0.208,0.116,0.075,���k��,3.0,��
2023/09/07,22:00,0.146,0.129,0.215,0.202,0.206,0.118,0.075,�k��,3.7,��
2023/09/07,22:10,0.146,0.130,0.214,0.201,0.209,0.118,0.075,�k��,2.8,��
2023/09/07,22:20,0.144,0.130,0.214,0.204,0.209,0.117,0.076,�k��,2.8,�L
2023/09/07,22:30,0.144,0.129,0.213,0.202,0.207,0.117,0.075,���k��,3.3,��
2023/09/07,22:40,0.147,0.129,0.215,0.202,0.207,0.118,0.076,���k��,2.8,��
2023/09/07,22:50,0.146,0.129,0.214,0.202,0.211,0.117,0.075,���k��,1.1,��
2023/09/07,23:00,0.144,0.130,0.213,0.204,0.209,0.117,0.075,���k��,1.8,��
2023/09/07,23:10,0.144,0.130,0.215,0.203,0.209,0.117,0.075,���k��,1.5,��
2023/09/07,23:20,0.146,0.129,0.216,0.201,0.206,0.118,0.075,-,CALM,��
2023/09/07,23:30,0.146,0.130,0.213,0.203,0.211,0.117,0.076,���k��,1.3,��
2023/09/07,23:40,0.145,0.130,0.214,0.203,0.209,0.116,0.075,���k��,2.3,��
2023/09/07,23:50,0.145,0.129,0.215,0.203,0.207,0.118,0.075,�k��,2.6,��
